When you browse on this site, cookies collect data to enhance your experience and personalize the content and advertising you see.
Visit our Privacy Policy to learn more. By continuing to use the site, you agree to this use of cookies and data.
  • In Hungary
  • List of Countries
  • For 7 days
  • Water Temperature
  • Weather Map
  • News
  • Weather Widgets
  • user-avatar
    Login

    Hourly Weather Kumajny

    Today, 24 September, Tuesday

    Time Temperature Precipitation Wind Pressure Humidity
    00:00 +5°C° 0 mm 3 mps 758 mmHg 77%
    01:00 +5°C° 0 mm 3 mps 758 mmHg 79%
    02:00 +4°C° 0 mm 3 mps 757 mmHg 80%
    03:00 +4°C° 0 mm 3 mps 757 mmHg 81%
    04:00 +4°C° 0 mm 3 mps 757 mmHg 82%
    05:00 +4°C° 0 mm 3 mps 757 mmHg 80%
    06:00 +5°C° 0 mm 3 mps 757 mmHg 78%
    07:00 +7°C° 0 mm 3 mps 756 mmHg 76%
    08:00 +9°C° 0 mm 3 mps 756 mmHg 70%
    09:00 +11°C° 0 mm 3 mps 756 mmHg 65%
    10:00 +13°C° 0 mm 3 mps 756 mmHg 60%
    11:00 +14°C° 0 mm 3 mps 756 mmHg 57%
    12:00 +16°C° 0 mm 3 mps 756 mmHg 54%
    13:00 +17°C° 0 mm 3 mps 755 mmHg 50%
    14:00 +16°C° 0 mm 3 mps 755 mmHg 53%
    15:00 +16°C° 0 mm 3 mps 754 mmHg 55%
    16:00 +16°C° 0 mm 3 mps 754 mmHg 58%
    17:00 +13°C° 0 mm 3 mps 754 mmHg 63%
    18:00 +11°C° 0 mm 3 mps 754 mmHg 68%
    19:00 +10°C° 0 mm 3 mps 754 mmHg 73%
    20:00 +9°C° 0 mm 3 mps 753 mmHg 73%
    21:00 +9°C° 0 mm 3 mps 753 mmHg 74%
    22:00 +8°C° 0 mm 3 mps 753 mmHg 74%
    23:00 +7°C° 0 mm 4 mps 753 mmHg 71%

    Tomorrow, 25 September, Wednesday

    Time Temperature Precipitation Wind Pressure Humidity
    00:00 +8°C° 0 mm 4 mps 753 mmHg 69%
    01:00 +8°C° 0 mm 4 mps 753 mmHg 66%
    02:00 +8°C° 0 mm 4 mps 752 mmHg 67%
    03:00 +8°C° 0 mm 4 mps 752 mmHg 67%
    04:00 +8°C° 0 mm 4 mps 752 mmHg 68%
    05:00 +8°C° 0 mm 4 mps 752 mmHg 69%
    06:00 +8°C° 0 mm 5 mps 751 mmHg 70%
    07:00 +8°C° 0 mm 5 mps 751 mmHg 70%
    08:00 +10°C° 0 mm 5 mps 751 mmHg 67%
    09:00 +12°C° 0 mm 5 mps 751 mmHg 64%
    10:00 +14°C° 0 mm 5 mps 751 mmHg 61%
    11:00 +15°C° 0 mm 5 mps 751 mmHg 60%
    12:00 +17°C° 0 mm 4 mps 751 mmHg 58%
    13:00 +18°C° 0 mm 4 mps 750 mmHg 56%
    14:00 +17°C° 0 mm 4 mps 750 mmHg 59%
    15:00 +17°C° 0 mm 4 mps 750 mmHg 62%
    16:00 +15°C° 0 mm 4 mps 750 mmHg 64%
    17:00 +14°C° 0 mm 4 mps 750 mmHg 68%
    18:00 +13°C° 0 mm 4 mps 750 mmHg 72%
    19:00 +12°C° 0 mm 4 mps 750 mmHg 77%
    20:00 +11°C° 0 mm 4 mps 750 mmHg 78%
    21:00 +11°C° 0 mm 4 mps 750 mmHg 80%
    22:00 +10°C° 0 mm 4 mps 750 mmHg 82%
    23:00 +10°C° 0 mm 3 mps 750 mmHg 85%

    Day after tomorrow, 26 September, Thursday

    Time Temperature Precipitation Wind Pressure Humidity
    00:00 +10°C° 0 mm 3 mps 750 mmHg 87%
    01:00 +9°C° 0 mm 3 mps 750 mmHg 90%
    02:00 +9°C° 0 mm 3 mps 750 mmHg 90%
    03:00 +9°C° 0 mm 3 mps 750 mmHg 90%
    04:00 +9°C° 0 mm 3 mps 751 mmHg 90%
    05:00 +10°C° 0 mm 3 mps 751 mmHg 87%
    06:00 +10°C° 0 mm 3 mps 751 mmHg 83%
    07:00 +10°C° 0 mm 3 mps 751 mmHg 80%
    08:00 +11°C° 0 mm 3 mps 752 mmHg 77%
    09:00 +12°C° 0 mm 3 mps 752 mmHg 74%
    10:00 +14°C° 0 mm 3 mps 752 mmHg 71%
    11:00 +16°C° 0 mm 3 mps 752 mmHg 68%
    12:00 +17°C° 0 mm 3 mps 752 mmHg 65%
    13:00 +18°C° 0 mm 3 mps 753 mmHg 63%
    14:00 +18°C° 0 mm 3 mps 753 mmHg 66%
    15:00 +17°C° 0 mm 3 mps 753 mmHg 69%
    16:00 +16°C° 0 mm 2 mps 753 mmHg 72%
    17:00 +15°C° 0 mm 2 mps 753 mmHg 75%
    18:00 +14°C° 0 mm 2 mps 753 mmHg 79%
    19:00 +13°C° 0 mm 2 mps 753 mmHg 82%
    20:00 +12°C° 0 mm 2 mps 754 mmHg 84%
    21:00 +12°C° 0 mm 2 mps 754 mmHg 86%
    22:00 +10°C° 0 mm 2 mps 754 mmHg 89%
    23:00 +10°C° 0 mm 2 mps 754 mmHg 89%

    27 September, Friday

    Time Temperature Precipitation Wind Pressure Humidity
    00:00 +9°C° 0 mm 2 mps 754 mmHg 90%
    01:00 +9°C° 0 mm 2 mps 754 mmHg 91%
    02:00 +9°C° 0 mm 2 mps 754 mmHg 92%
    03:00 +9°C° 0 mm 2 mps 755 mmHg 93%
    04:00 +9°C° 0 mm 2 mps 755 mmHg 93%
    05:00 +9°C° 0 mm 3 mps 754 mmHg 92%
    06:00 +10°C° 0 mm 3 mps 754 mmHg 91%
    07:00 +10°C° 0 mm 3 mps 754 mmHg 89%
    08:00 +12°C° 0 mm 3 mps 754 mmHg 83%
    09:00 +14°C° 0 mm 3 mps 754 mmHg 77%
    10:00 +17°C° 0 mm 3 mps 754 mmHg 71%
    11:00 +18°C° 0 mm 3 mps 754 mmHg 68%
    12:00 +19°C° 0 mm 3 mps 754 mmHg 64%
    13:00 +20°C° 0 mm 4 mps 753 mmHg 61%
    14:00 +20°C° 0 mm 3 mps 753 mmHg 63%
    15:00 +19°C° 0 mm 3 mps 753 mmHg 65%
    16:00 +19°C° 0 mm 3 mps 752 mmHg 67%
    17:00 +18°C° 0.1 mm 3 mps 752 mmHg 73%
    18:00 +16°C° 0.1 mm 3 mps 752 mmHg 79%
    19:00 +14°C° 0.1 mm 3 mps 752 mmHg 85%
    20:00 +14°C° 0.6 mm 3 mps 752 mmHg 86%
    21:00 +14°C° 0.6 mm 4 mps 751 mmHg 88%
    22:00 +14°C° 0.6 mm 5 mps 751 mmHg 89%
    23:00 +14°C° 0.3 mm 5 mps 751 mmHg 90%

    28 September, Saturday

    Time Temperature Precipitation Wind Pressure Humidity
    00:00 +14°C° 0.3 mm 5 mps 750 mmHg 91%
    01:00 +14°C° 0.3 mm 5 mps 750 mmHg 92%
    02:00 +14°C° 0.7 mm 5 mps 750 mmHg 93%
    03:00 +14°C° 0.7 mm 5 mps 750 mmHg 94%
    04:00 +14°C° 0.7 mm 5 mps 749 mmHg 94%
    05:00 +14°C° 0.1 mm 5 mps 749 mmHg 94%
    06:00 +13°C° 0.1 mm 5 mps 750 mmHg 93%
    07:00 +13°C° 0.1 mm 5 mps 750 mmHg 92%
    08:00 +14°C° 0 mm 5 mps 750 mmHg 87%
    09:00 +15°C° 0 mm 5 mps 751 mmHg 81%
    10:00 +16°C° 0 mm 5 mps 751 mmHg 75%
    11:00 +17°C° 0.1 mm 5 mps 751 mmHg 71%
    12:00 +17°C° 0.1 mm 6 mps 751 mmHg 68%
    13:00 +19°C° 0.1 mm 6 mps 751 mmHg 64%
    14:00 +19°C° 0.3 mm 5 mps 750 mmHg 66%
    15:00 +18°C° 0.3 mm 4 mps 750 mmHg 68%
    16:00 +18°C° 0.3 mm 3 mps 750 mmHg 70%
    17:00 +17°C° 0.5 mm 3 mps 750 mmHg 74%
    18:00 +16°C° 0.5 mm 3 mps 750 mmHg 79%
    19:00 +13°C° 0.5 mm 3 mps 750 mmHg 83%
    20:00 +13°C° 0.2 mm 4 mps 750 mmHg 84%
    21:00 +13°C° 0.2 mm 4 mps 750 mmHg 84%
    22:00 +13°C° 0.2 mm 4 mps 750 mmHg 85%
    23:00 +13°C° 0 mm 4 mps 750 mmHg 86%

    29 September, Sunday

    Time Temperature Precipitation Wind Pressure Humidity
    00:00 +12°C° 0 mm 4 mps 750 mmHg 88%
    01:00 +12°C° 0 mm 4 mps 749 mmHg 89%
    02:00 +10°C° 0 mm 5 mps 749 mmHg 90%
    03:00 +10°C° 0 mm 5 mps 749 mmHg 91%
    04:00 +10°C° 0 mm 5 mps 749 mmHg 92%
    05:00 +10°C° 0 mm 5 mps 749 mmHg 90%
    06:00 +10°C° 0 mm 6 mps 749 mmHg 88%
    07:00 +11°C° 0 mm 6 mps 749 mmHg 86%
    08:00 +11°C° 0.1 mm 6 mps 749 mmHg 83%
    09:00 +13°C° 0.1 mm 6 mps 750 mmHg 79%
    10:00 +14°C° 0.1 mm 6 mps 750 mmHg 76%
    11:00 +14°C° 0.2 mm 6 mps 750 mmHg 74%
    12:00 +14°C° 0.2 mm 6 mps 749 mmHg 73%
    13:00 +15°C° 0.2 mm 7 mps 749 mmHg 72%
    14:00 +14°C° 0 mm 6 mps 749 mmHg 72%
    15:00 +14°C° 0 mm 5 mps 749 mmHg 72%
    16:00 +14°C° 0 mm 5 mps 748 mmHg 72%
    17:00 +14°C° 0.1 mm 5 mps 748 mmHg 74%
    18:00 +13°C° 0.1 mm 4 mps 748 mmHg 76%
    19:00 +13°C° 0.1 mm 4 mps 748 mmHg 78%
    20:00 +13°C° 0.2 mm 5 mps 748 mmHg 80%
    21:00 +12°C° 0.2 mm 5 mps 748 mmHg 83%
    22:00 +12°C° 0.2 mm 5 mps 747 mmHg 85%
    23:00 +12°C° 0 mm 5 mps 747 mmHg 86%
    Show more